Regional Weather Roundup
Issued by NWS

Home | Current Version | Previous Version | Text Only | Print | Product List | Glossary Off
Versions: 1 2 3 4 5 6 7 8 9 10 11 12 13 14 15 16 17 18 19 20 21 22 23 24 25 26 27 28 29 30 31 32 33 34 35 36 37 38 39 40 41 42 43 44 45 46 47 48 49 50

000
ASUS45 KTFX 180904
RWRMT
MONTANA HOURLY WEATHER ROUNDUP
NATIONAL WEATHER SERVICE GREAT FALLS MT
304 AM MDT FRI APR 18 2014

NOTE: "FAIR" INDICATES FEW OR NO CLOUDS BELOW 12000 FEET WITH NO
SIGNIFICANT WEATHER AND/OR OBSTRUCTIONS TO VISIBILITY.

* THESE STATIONS ARE NOT UNDER NWS QUALITY CONTROL. THEY DO NOT
   REPORT WEATHER SUCH AS PRECIPITATION OR FOG.

MTZ001>007-043-181000-
WEST OF THE DIVIDE
CITY           SKY/WX    TMP DP  RH WIND       PRES   REMARKS
KALISPELL      CLOUDY    45  43  93 S12       29.71S
MISSOULA       CLOUDY    45  45 100 CALM      29.78F
BUTTE          RAIN      43  37  79 W18       29.75R
MULLAN PASS    LGT SNOW  32  30  92 SW8       29.73F VSB 3/4  WCI  25
* ESSEX        N/A       35  34  96 S1         N/A
* LINCOLN      N/A       41  40  96 SW2G10     N/A
* LOOKOUT PASS N/A       36  35  96 SW1        N/A
* POLSON       N/A       42  42 100 S2         N/A
* SEELEY LAKE  N/A       39  38  96 NE1        N/A
* THOMP F APT  CLOUDY    43  23  45 S2G9       N/A
$$

MTZ008-052>055-181000-
SOUTHWEST MONTANA
CITY           SKY/WX    TMP DP  RH WIND       PRES   REMARKS
BOZEMAN        CLOUDY    46  32  58 VRB3      29.67F
DILLON         CLOUDY    52  28  40 S10       29.70R
W YELLOWSTONE  N/A       33  26  75 SE1        N/A
* THREE FORKS  CLOUDY    57  30  36 S14G24     N/A
* BOULDER HILL N/A       47  32  56 S6G13      N/A
* MONIDA PASS  N/A       41  24  51 E13G18     N/A
* RAYNOLDS PAS N/A       38  19  46 SE11       N/A   WCI  31
* WHITEHALL    N/A       55  29  37 SE3G16     N/A
* WISE RIVER   N/A       42  37  83 N3         N/A
$$

MTZ009>010-012-014-046-048-049-054-181000-
EAST SLOPES AND CENTRAL MONTANA
CITY           SKY/WX    TMP DP  RH WIND       PRES   REMARKS
CUT BANK       CLOUDY    43  34  71 W12       29.63F
GREAT FALLS    LGT RAIN  45  43  93 W8        29.67R
HELENA         CLOUDY    48  39  71 W14       29.71R
MALMSTROM AFB  LGT RAIN  46  41  83 SW13      29.65R
* CONRAD       CLOUDY    43  39  86 NW5        N/A
* DEARBORN     N/A       45  43  93 SW2        N/A
* EAST GLACIER N/A       39  34  82 W20G31     N/A   WCI  29
* MONARCH      N/A       41  32  70 SE4        N/A
* PENDROY      N/A       43  36  76 NW6        N/A
* ROGERS PASS  N/A       38  35  89 SE12G22    N/A   WCI  30
* SAINT MARY   N/A       42  35  76 S8         N/A
* SWEET GRASS  N/A       41  38  89 W12        N/A
$$

MTZ011-013-016-021-035-040-045-047-050-051-181000-
NORTH CENTRAL MONTANA
CITY           SKY/WX    TMP DP  RH WIND       PRES   REMARKS
HAVRE          MOCLDY    50  37  61 CALM      29.62F
LEWISTOWN      PTCLDY    43  32  65 E9        29.67F
* CHESTER      N/A       43  38  83 S4         N/A
* DENTON       N/A       43  35  73 S6         N/A
* GEYSER       N/A       42  40  93 N6         N/A
* JUDITH GAP   N/A       38  29  70 SW9        N/A   WCI  32
* LOMA         N/A       46  41  83 E8G13      N/A
$$

MTZ017>020-022>027-061-062-181000-
NORTHEAST MONTANA
CITY           SKY/WX    TMP DP  RH WIND       PRES   REMARKS
GLASGOW        CLOUDY    41  36  82 E18       29.75F
GLENDIVE       CLOUDY    41  30  65 E10       29.85F
JORDAN         PTCLDY    46  37  71 E9        29.73F
SIDNEY         CLOUDY    39  28  65 SE13      29.90F WCI  31
WOLF POINT     CLOUDY    45  30  56 E12       29.82F
* BEAVER HILL  N/A       36  28  73 E26G34     N/A   WCI  24
* CIRCLE       N/A       45  34  65 E11        N/A
* LINDSAY DVD  N/A       39  32  76 E12        N/A   WCI  32
* NAVAJO       N/A       35  33  92 SE14       N/A   WCI  26
* SACO         N/A       44  34  68 E14        N/A
$$

MTZ028>042-056>058-181000-
SOUTHCENTRAL AND SOUTHEAST MONTANA
CITY           SKY/WX    TMP DP  RH WIND       PRES   REMARKS
BAKER          MOCLDY    36  28  73 E17       29.84F WCI  26
BILLINGS       PTCLDY    45  30  56 N5        29.67F
LIVINGSTON     CLOUDY    46  30  54 VRB6      29.67F
MILES CITY     MOCLDY    46  36  68 SE16      29.76F
* LAUREL APT   PTCLDY    46  25  44 N/A        N/A
* ROUNDUP APT  PTCLDY    43  28  56 N/A        N/A
* HYSHAM       N/A       52  24  34 SE6G14     N/A
* LAME DEER    N/A       45  31  58 SE12       N/A
* REED POINT   N/A       38  31  76 W1G7       N/A
* ROSCOE HILL  N/A       56  13  18 S12G23     N/A
$$

REGIONAL REPORTS...DAKOTAS
CITY           SKY/WX    TMP DP  RH WIND       PRES   REMARKS
WILLISTON      LGT RAIN  37  28  70 SE8       29.94F WCI  31
DICKINSON      CLOUDY    34  21  59 SE17      29.92F WCI  23
CROSBY         CLEAR     36  27  70 E15       29.98F WCI  27
TIOGA          CLOUDY    36  23  59 SE17G24   30.01F WCI  26
WATFORD CITY   MOCLDY    37  25  62 SE18G24   29.93F WCI  27
BISMARCK       CLEAR     34  21  59 E14       30.09F WCI  24
GRAND FORKS    MOCLDY    30  19  64 SE6       30.28S WCI  24
FARGO          CLOUDY    34  23  64 E5        30.27F WCI  29
BUFFALO SD     PTCLDY    34  27  76 SE6       29.82F WCI  29
RAPID CITY     CLEAR     36  32  85 SE3       29.86F
$$

REGIONAL REPORTS...WYOMING/IDAHO/WASHINGTON
CITY           SKY/WX    TMP DP  RH WIND       PRES   REMARKS
GILLETTE       MOCLDY    43  36  76 S20       29.79F
SHERIDAN       PTCLDY    36  30  79 W3        29.75F
CODY           MOCLDY    45  27  49 S12       29.78F
YELLOWSTONE LA CLOUDY    27  23  85 CALM      29.93S
SALMON         CLOUDY    48  43  83 N14       29.75R
MULLAN PASS    LGT SNOW  32  30  92 SW8       29.73S VSB 3/4  WCI  25
SPOKANE        CLOUDY    46  39  77 SW26G35   29.73S
$$

REGIONAL REPORTS...ALBERTA
CITY           SKY/WX    TMP DP  RH WIND       PRES   REMARKS
EDMONTON       LGT SNOW  28  27  96 NE7       29.72F VSB 1 3/4 WCI  21

$$




USA.gov is the U.S. government's official web portal to all federal, state and local government web resources and services.